Year,Month,Day,Hour,Minute,Value (Times are PST for temperature in C)
2010,04,15,00,00,3.40
2010,04,15,00,01,3.40
2010,04,15,00,02,3.40
2010,04,15,00,03,3.40
2010,04,15,00,04,3.40
2010,04,15,00,05,3.40
2010,04,15,00,06,3.40
2010,04,15,00,07,3.30
2010,04,15,00,08,3.30
2010,04,15,00,09,3.30
2010,04,15,00,10,3.30
2010,04,15,00,11,3.30
2010,04,15,00,12,3.30
2010,04,15,00,13,3.30
2010,04,15,00,14,3.30
2010,04,15,00,15,3.30
2010,04,15,00,16,3.30
2010,04,15,00,17,3.30
2010,04,15,00,18,3.30
2010,04,15,00,19,3.30
2010,04,15,00,20,3.20
2010,04,15,00,21,3.20
2010,04,15,00,22,3.20
2010,04,15,00,23,3.20
2010,04,15,00,24,3.20
2010,04,15,00,25,3.20
2010,04,15,00,26,3.20
2010,04,15,00,27,3.20
2010,04,15,00,28,3.20
2010,04,15,00,29,3.20
2010,04,15,00,30,3.20
2010,04,15,00,31,3.20
2010,04,15,00,32,3.20
2010,04,15,00,33,3.20
2010,04,15,00,34,3.20
2010,04,15,00,35,3.20
2010,04,15,00,36,3.20
2010,04,15,00,37,3.20
2010,04,15,00,38,3.20
2010,04,15,00,39,3.20
2010,04,15,00,40,3.10
2010,04,15,00,41,3.10
2010,04,15,00,42,3.10
2010,04,15,00,43,3.10
2010,04,15,00,44,3.10
2010,04,15,00,45,3.10
2010,04,15,00,46,3.10
2010,04,15,00,47,3.10
2010,04,15,00,48,3.10
2010,04,15,00,49,3.10
2010,04,15,00,50,3.10
2010,04,15,00,51,3.10
2010,04,15,00,52,3.10
2010,04,15,00,53,3.10
2010,04,15,00,54,3.10
2010,04,15,00,55,3.10
2010,04,15,00,56,3.10
2010,04,15,00,57,3.10
2010,04,15,00,58,3.10
2010,04,15,00,59,3.10
2010,04,15,01,00,3.10
2010,04,15,01,01,3.10
2010,04,15,01,02,3.10
2010,04,15,01,03,3.10
2010,04,15,01,04,3.10
2010,04,15,01,05,3.10
2010,04,15,01,06,3.10
2010,04,15,01,07,3.10
2010,04,15,01,08,3.10
2010,04,15,01,09,3.10
2010,04,15,01,10,3.10
2010,04,15,01,11,3.10
2010,04,15,01,12,3.10
2010,04,15,01,13,3.10
2010,04,15,01,14,3.10
2010,04,15,01,15,3.00
2010,04,15,01,16,3.00
2010,04,15,01,17,3.00
2010,04,15,01,18,3.00
2010,04,15,01,19,3.00
2010,04,15,01,20,3.00
2010,04,15,01,21,3.00
2010,04,15,01,22,2.90
2010,04,15,01,23,2.90
2010,04,15,01,24,2.90
2010,04,15,01,25,2.90
2010,04,15,01,26,2.90
2010,04,15,01,27,2.90
2010,04,15,01,28,2.90
2010,04,15,01,29,2.90
2010,04,15,01,30,2.90
2010,04,15,01,31,2.90
2010,04,15,01,32,2.90
2010,04,15,01,33,2.90
2010,04,15,01,34,2.90
2010,04,15,01,35,2.90
2010,04,15,01,36,2.90
2010,04,15,01,37,2.90
2010,04,15,01,38,2.80
2010,04,15,01,39,2.80
2010,04,15,01,40,2.80
2010,04,15,01,41,2.80
2010,04,15,01,42,2.80
2010,04,15,01,43,2.80
2010,04,15,01,44,2.80
2010,04,15,01,45,2.80
2010,04,15,01,46,2.80
2010,04,15,01,47,2.80
2010,04,15,01,48,2.80
2010,04,15,01,49,2.80
2010,04,15,01,50,2.80
2010,04,15,01,51,2.80
2010,04,15,01,52,2.80
2010,04,15,01,53,2.80
2010,04,15,01,54,2.80
2010,04,15,01,55,2.80
2010,04,15,01,56,2.80
2010,04,15,01,57,2.80
2010,04,15,01,58,2.80
2010,04,15,01,59,2.80
2010,04,15,02,00,2.80
2010,04,15,02,01,2.80
2010,04,15,02,02,2.80
2010,04,15,02,03,2.80
2010,04,15,02,04,2.80
2010,04,15,02,05,2.80
2010,04,15,02,06,2.80
2010,04,15,02,07,2.80
2010,04,15,02,08,2.80
2010,04,15,02,09,2.80
2010,04,15,02,10,2.80
2010,04,15,02,11,2.80
2010,04,15,02,12,2.80
2010,04,15,02,13,2.80
2010,04,15,02,14,2.90
2010,04,15,02,15,2.90
2010,04,15,02,16,2.90
2010,04,15,02,17,2.90
2010,04,15,02,18,2.90
2010,04,15,02,19,2.90
2010,04,15,02,20,2.90
2010,04,15,02,21,2.90
2010,04,15,02,22,2.90
2010,04,15,02,23,2.90
2010,04,15,02,24,2.90
2010,04,15,02,25,2.90
2010,04,15,02,26,2.90
2010,04,15,02,27,2.90
2010,04,15,02,28,2.90
2010,04,15,02,29,2.90
2010,04,15,02,30,2.80
2010,04,15,02,31,2.80
2010,04,15,02,32,2.80
2010,04,15,02,33,2.80
2010,04,15,02,34,2.80
2010,04,15,02,35,2.80
2010,04,15,02,36,2.80
2010,04,15,02,37,2.80
2010,04,15,02,38,2.80
2010,04,15,02,39,2.80
2010,04,15,02,40,2.80
2010,04,15,02,41,2.80
2010,04,15,02,42,2.90
2010,04,15,02,43,2.90
2010,04,15,02,44,2.90
2010,04,15,02,45,2.90
2010,04,15,02,46,2.90
2010,04,15,02,47,2.90
2010,04,15,02,48,3.00
2010,04,15,02,49,3.00
2010,04,15,02,50,3.00
2010,04,15,02,51,3.00
2010,04,15,02,52,3.10
2010,04,15,02,53,3.10
2010,04,15,02,54,3.10
2010,04,15,02,55,3.10
2010,04,15,02,56,3.10
2010,04,15,02,57,3.10
2010,04,15,02,58,3.20
2010,04,15,02,59,3.20
2010,04,15,03,00,3.20
2010,04,15,03,01,3.20
2010,04,15,03,02,3.20
2010,04,15,03,03,3.20
2010,04,15,03,04,3.20
2010,04,15,03,05,3.20
2010,04,15,03,06,3.30
2010,04,15,03,07,3.30
2010,04,15,03,08,3.30
2010,04,15,03,09,3.30
2010,04,15,03,10,3.30
2010,04,15,03,11,3.30
2010,04,15,03,12,3.30
2010,04,15,03,13,3.30
2010,04,15,03,14,3.30
2010,04,15,03,15,3.30
2010,04,15,03,16,3.30
2010,04,15,03,17,3.30
2010,04,15,03,18,3.30
2010,04,15,03,19,3.30
2010,04,15,03,20,3.30
2010,04,15,03,21,3.20
2010,04,15,03,22,3.20
2010,04,15,03,23,3.20
2010,04,15,03,24,3.20
2010,04,15,03,25,3.20
2010,04,15,03,26,3.20
2010,04,15,03,27,3.20
2010,04,15,03,28,3.20
2010,04,15,03,29,3.20
2010,04,15,03,30,3.20
2010,04,15,03,31,3.20
2010,04,15,03,32,3.20
2010,04,15,03,33,3.20
2010,04,15,03,34,3.20
2010,04,15,03,35,3.20
2010,04,15,03,36,3.20
2010,04,15,03,37,3.20
2010,04,15,03,38,3.20
2010,04,15,03,39,3.20
2010,04,15,03,40,3.20
2010,04,15,03,41,3.20
2010,04,15,03,42,3.20
2010,04,15,03,43,3.20
2010,04,15,03,44,3.20
2010,04,15,03,45,3.20
2010,04,15,03,46,3.20
2010,04,15,03,47,3.20
2010,04,15,03,48,3.20
2010,04,15,03,49,3.20
2010,04,15,03,50,3.20
2010,04,15,03,51,3.20
2010,04,15,03,52,3.20
2010,04,15,03,53,3.20
2010,04,15,03,54,3.30
2010,04,15,03,55,3.30
2010,04,15,03,56,3.30
2010,04,15,03,57,3.30
2010,04,15,03,58,3.30
2010,04,15,03,59,3.30
2010,04,15,04,00,3.30
2010,04,15,04,01,3.30
2010,04,15,04,02,3.30
2010,04,15,04,03,3.30
2010,04,15,04,04,3.30
2010,04,15,04,05,3.30
2010,04,15,04,06,3.30
2010,04,15,04,07,3.30
2010,04,15,04,08,3.30
2010,04,15,04,09,3.30
2010,04,15,04,10,3.30
2010,04,15,04,11,3.20
2010,04,15,04,12,3.20
2010,04,15,04,13,3.20
2010,04,15,04,14,3.20
2010,04,15,04,15,3.20
2010,04,15,04,16,3.20
2010,04,15,04,17,3.20
2010,04,15,04,18,3.20
2010,04,15,04,19,3.10
2010,04,15,04,20,3.10
2010,04,15,04,21,3.10
2010,04,15,04,22,3.10
2010,04,15,04,23,3.10
2010,04,15,04,24,3.10
2010,04,15,04,25,3.10
2010,04,15,04,26,3.10
2010,04,15,04,27,3.10
2010,04,15,04,28,3.10
2010,04,15,04,29,3.00
2010,04,15,04,30,3.00
2010,04,15,04,31,3.00
2010,04,15,04,32,3.10
2010,04,15,04,33,3.10
2010,04,15,04,34,3.10
2010,04,15,04,35,3.10
2010,04,15,04,36,3.10
2010,04,15,04,37,3.10
2010,04,15,04,38,3.10
2010,04,15,04,39,3.10
2010,04,15,04,40,3.20
2010,04,15,04,41,3.20
2010,04,15,04,42,3.20
2010,04,15,04,43,3.20
2010,04,15,04,44,3.20
2010,04,15,04,45,3.20
2010,04,15,04,46,3.20
2010,04,15,04,47,3.20
2010,04,15,04,48,3.20
2010,04,15,04,49,3.20
2010,04,15,04,50,3.10
2010,04,15,04,51,3.10
2010,04,15,04,52,3.10
2010,04,15,04,53,3.10
2010,04,15,04,54,3.20
2010,04,15,04,55,3.20
2010,04,15,04,56,3.20
2010,04,15,04,57,3.20
2010,04,15,04,58,3.20
2010,04,15,04,59,3.20
2010,04,15,05,00,3.20
2010,04,15,05,01,3.10
2010,04,15,05,02,3.10
2010,04,15,05,03,3.10
2010,04,15,05,04,3.10
2010,04,15,05,05,3.10
2010,04,15,05,06,3.10
2010,04,15,05,07,3.10
2010,04,15,05,08,3.10
2010,04,15,05,09,3.10
2010,04,15,05,10,3.10
2010,04,15,05,11,3.10
2010,04,15,05,12,3.10
2010,04,15,05,13,3.10
2010,04,15,05,14,3.20
2010,04,15,05,15,3.20
2010,04,15,05,16,3.20
2010,04,15,05,17,3.20
2010,04,15,05,18,3.20
2010,04,15,05,19,3.20
2010,04,15,05,20,3.10
2010,04,15,05,21,3.10
2010,04,15,05,22,3.10
2010,04,15,05,23,3.10
2010,04,15,05,24,3.10
2010,04,15,05,25,3.10
2010,04,15,05,26,3.10
2010,04,15,05,27,3.00
2010,04,15,05,28,3.00
2010,04,15,05,29,3.00
2010,04,15,05,30,3.00
2010,04,15,05,31,2.90
2010,04,15,05,32,2.90
2010,04,15,05,33,2.90
2010,04,15,05,34,2.90
2010,04,15,05,35,2.90
2010,04,15,05,36,2.90
2010,04,15,05,37,2.90
2010,04,15,05,38,2.90
2010,04,15,05,39,2.90
2010,04,15,05,40,2.90
2010,04,15,05,41,2.90
2010,04,15,05,42,3.00
2010,04,15,05,43,3.00
2010,04,15,05,44,3.00
2010,04,15,05,45,3.10
2010,04,15,05,46,3.10
2010,04,15,05,47,3.10
2010,04,15,05,48,3.10
2010,04,15,05,49,3.10
2010,04,15,05,50,3.10
2010,04,15,05,51,3.10
2010,04,15,05,52,3.10
2010,04,15,05,53,3.10
2010,04,15,05,54,3.10
2010,04,15,05,55,3.10
2010,04,15,05,56,3.20
2010,04,15,05,57,3.20
2010,04,15,05,58,3.20
2010,04,15,05,59,3.20
2010,04,15,06,00,3.20
2010,04,15,06,01,3.20
2010,04,15,06,02,3.20
2010,04,15,06,03,3.20
2010,04,15,06,04,3.20
2010,04,15,06,05,3.20
2010,04,15,06,06,3.10
2010,04,15,06,07,3.10
2010,04,15,06,08,3.10
2010,04,15,06,09,3.10
2010,04,15,06,10,3.10
2010,04,15,06,11,3.10
2010,04,15,06,12,3.10
2010,04,15,06,13,3.00
2010,04,15,06,14,3.00
2010,04,15,06,15,3.00
2010,04,15,06,16,3.10
2010,04,15,06,17,3.10
2010,04,15,06,18,3.10
2010,04,15,06,19,3.10
2010,04,15,06,20,3.10
2010,04,15,06,21,3.10
2010,04,15,06,22,3.10
2010,04,15,06,23,3.10
2010,04,15,06,24,3.10
2010,04,15,06,25,3.10
2010,04,15,06,26,3.20
2010,04,15,06,27,3.20
2010,04,15,06,28,3.20
2010,04,15,06,29,3.20
2010,04,15,06,30,3.20
2010,04,15,06,31,3.20
2010,04,15,06,32,3.20
2010,04,15,06,33,3.20
2010,04,15,06,34,3.20
2010,04,15,06,35,3.30
2010,04,15,06,36,3.30
2010,04,15,06,37,3.30
2010,04,15,06,38,3.30
2010,04,15,06,39,3.30
2010,04,15,06,40,3.20
2010,04,15,06,41,3.20
2010,04,15,06,42,3.20
2010,04,15,06,43,3.20
2010,04,15,06,44,3.20
2010,04,15,06,45,3.20
2010,04,15,06,46,3.20
2010,04,15,06,47,3.20
2010,04,15,06,48,3.20
2010,04,15,06,49,3.20
2010,04,15,06,50,3.20
2010,04,15,06,51,3.20
2010,04,15,06,52,3.20
2010,04,15,06,53,3.20
2010,04,15,06,54,3.20
2010,04,15,06,55,3.20
2010,04,15,06,56,3.20
2010,04,15,06,57,3.20
2010,04,15,06,58,3.30
2010,04,15,06,59,3.20
2010,04,15,07,00,3.20
2010,04,15,07,01,3.20
2010,04,15,07,02,3.20
2010,04,15,07,03,3.20
2010,04,15,07,04,3.20
2010,04,15,07,05,3.20
2010,04,15,07,06,3.20
2010,04,15,07,07,3.20
2010,04,15,07,08,3.20
2010,04,15,07,09,3.20
2010,04,15,07,10,3.20
2010,04,15,07,11,3.20
2010,04,15,07,12,3.20
2010,04,15,07,13,3.20
2010,04,15,07,14,3.20
2010,04,15,07,15,3.20
2010,04,15,07,16,3.20
2010,04,15,07,17,3.20
2010,04,15,07,18,3.20
2010,04,15,07,19,3.20
2010,04,15,07,20,3.20
2010,04,15,07,21,3.20
2010,04,15,07,22,3.20
2010,04,15,07,23,3.20
2010,04,15,07,24,3.20
2010,04,15,07,25,3.30
2010,04,15,07,26,3.30
2010,04,15,07,27,3.30
2010,04,15,07,28,3.30
2010,04,15,07,29,3.30
2010,04,15,07,30,3.30
2010,04,15,07,31,3.30
2010,04,15,07,32,3.30
2010,04,15,07,33,3.30
2010,04,15,07,34,3.30
2010,04,15,07,35,3.40
2010,04,15,07,36,3.40
2010,04,15,07,37,3.40
2010,04,15,07,38,3.40
2010,04,15,07,39,3.50
2010,04,15,07,40,3.50
2010,04,15,07,41,3.50
2010,04,15,07,42,3.60
2010,04,15,07,43,3.60
2010,04,15,07,44,3.60
2010,04,15,07,45,3.60
2010,04,15,07,46,3.70
2010,04,15,07,47,3.70
2010,04,15,07,48,3.70
2010,04,15,07,49,3.70
2010,04,15,07,50,3.80
2010,04,15,07,51,3.80
2010,04,15,07,52,3.90
2010,04,15,07,53,3.90
2010,04,15,07,54,4.00
2010,04,15,07,55,4.10
2010,04,15,07,56,4.10
2010,04,15,07,57,4.20
2010,04,15,07,58,4.30
2010,04,15,07,59,4.40
2010,04,15,08,00,4.60
2010,04,15,08,01,4.70
2010,04,15,08,02,4.80
2010,04,15,08,03,4.90
2010,04,15,08,04,4.90
2010,04,15,08,05,5.00
2010,04,15,08,06,5.10
2010,04,15,08,07,5.10
2010,04,15,08,08,5.20
2010,04,15,08,09,5.20
2010,04,15,08,10,5.30
2010,04,15,08,11,5.30
2010,04,15,08,12,5.40
2010,04,15,08,13,5.50
2010,04,15,08,14,5.60
2010,04,15,08,15,5.70
2010,04,15,08,16,5.80
2010,04,15,08,17,5.90
2010,04,15,08,18,6.10
2010,04,15,08,19,6.20
2010,04,15,08,20,6.40
2010,04,15,08,21,6.60
2010,04,15,08,22,6.70
2010,04,15,08,23,6.90
2010,04,15,08,24,7.10
2010,04,15,08,25,7.20
2010,04,15,08,26,7.30
2010,04,15,08,27,7.40
2010,04,15,08,28,7.60
2010,04,15,08,29,7.60
2010,04,15,08,30,7.70
2010,04,15,08,31,7.80
2010,04,15,08,32,7.90
2010,04,15,08,33,8.10
2010,04,15,08,34,8.20
2010,04,15,08,35,8.30
2010,04,15,08,36,8.50
2010,04,15,08,37,8.60
2010,04,15,08,38,8.80
2010,04,15,08,39,8.90
2010,04,15,08,40,9.00
2010,04,15,08,41,9.20
2010,04,15,08,42,9.40
2010,04,15,08,43,9.50
2010,04,15,08,44,9.70
2010,04,15,08,45,9.80
2010,04,15,08,46,9.90
2010,04,15,08,47,10.00
2010,04,15,08,48,10.10
2010,04,15,08,49,10.20
2010,04,15,08,50,10.30
2010,04,15,08,51,10.30
2010,04,15,08,52,10.40
2010,04,15,08,53,10.40
2010,04,15,08,54,10.50
2010,04,15,08,55,10.50
2010,04,15,08,56,10.60
2010,04,15,08,57,10.60
2010,04,15,08,58,10.60
2010,04,15,08,59,10.70
2010,04,15,09,00,10.70
2010,04,15,09,01,10.70
2010,04,15,09,02,10.70
2010,04,15,09,03,10.70
2010,04,15,09,04,10.70
2010,04,15,09,05,10.80
2010,04,15,09,06,10.80
2010,04,15,09,07,10.80
2010,04,15,09,08,10.80
2010,04,15,09,09,10.80
2010,04,15,09,10,10.80
2010,04,15,09,11,10.80
2010,04,15,09,12,10.90
2010,04,15,09,13,10.90
2010,04,15,09,14,11.00
2010,04,15,09,15,11.10
2010,04,15,09,16,11.20
2010,04,15,09,17,11.20
2010,04,15,09,18,11.30
2010,04,15,09,19,11.30
2010,04,15,09,20,11.50
2010,04,15,09,21,11.60
2010,04,15,09,22,11.70
2010,04,15,09,23,11.80
2010,04,15,09,24,11.90
2010,04,15,09,25,11.90
2010,04,15,09,26,11.90
2010,04,15,09,27,11.90
2010,04,15,09,28,11.90
2010,04,15,09,29,11.90
2010,04,15,09,30,12.00
2010,04,15,09,31,12.00
2010,04,15,09,32,12.00
2010,04,15,09,33,12.10
2010,04,15,09,34,12.10
2010,04,15,09,35,12.10
2010,04,15,09,36,12.10
2010,04,15,09,37,12.10
2010,04,15,09,38,12.10
2010,04,15,09,39,12.00
2010,04,15,09,40,12.00
2010,04,15,09,41,12.00
2010,04,15,09,42,12.00
2010,04,15,09,43,11.90
2010,04,15,09,44,11.90
2010,04,15,09,45,11.80
2010,04,15,09,46,11.90
2010,04,15,09,47,11.90
2010,04,15,09,48,11.90
2010,04,15,09,49,11.90
2010,04,15,09,50,11.90
2010,04,15,09,51,11.90
2010,04,15,09,52,11.90
2010,04,15,09,53,11.90
2010,04,15,09,54,11.90
2010,04,15,09,55,11.80
2010,04,15,09,56,11.80
2010,04,15,09,57,11.70
2010,04,15,09,58,11.70
2010,04,15,09,59,11.60
2010,04,15,10,00,11.60
2010,04,15,10,01,11.50
2010,04,15,10,02,11.50
2010,04,15,10,03,11.50
2010,04,15,10,04,11.50
2010,04,15,10,05,11.50
2010,04,15,10,06,11.50
2010,04,15,10,07,11.40
2010,04,15,10,08,11.40
2010,04,15,10,09,11.30
2010,04,15,10,10,11.30
2010,04,15,10,11,11.30
2010,04,15,10,12,11.20
2010,04,15,10,13,11.20
2010,04,15,10,14,11.20
2010,04,15,10,15,11.20
2010,04,15,10,16,11.20
2010,04,15,10,17,11.20
2010,04,15,10,18,11.20
2010,04,15,10,19,11.20
2010,04,15,10,20,11.20
2010,04,15,10,21,11.20
2010,04,15,10,22,11.20
2010,04,15,10,23,11.20
2010,04,15,10,24,11.20
2010,04,15,10,25,11.20
2010,04,15,10,26,11.20
2010,04,15,10,27,11.20
2010,04,15,10,28,11.20
2010,04,15,10,29,11.30
2010,04,15,10,30,11.30
2010,04,15,10,31,11.40
2010,04,15,10,32,11.40
2010,04,15,10,33,11.50
2010,04,15,10,34,11.50
2010,04,15,10,35,11.50
2010,04,15,10,36,11.60
2010,04,15,10,37,11.60
2010,04,15,10,38,11.70
2010,04,15,10,39,11.70
2010,04,15,10,40,11.70
2010,04,15,10,41,11.70
2010,04,15,10,42,11.70
2010,04,15,10,43,11.70
2010,04,15,10,44,11.70
2010,04,15,10,45,11.80
2010,04,15,10,46,11.80
2010,04,15,10,47,11.80
2010,04,15,10,48,11.70
2010,04,15,10,49,11.70
2010,04,15,10,50,11.60
2010,04,15,10,51,11.50
2010,04,15,10,52,11.40
2010,04,15,10,53,11.30
2010,04,15,10,54,11.30
2010,04,15,10,55,11.20
2010,04,15,10,56,11.20
2010,04,15,10,57,11.20
2010,04,15,10,58,11.30
2010,04,15,10,59,11.30
2010,04,15,11,00,11.30
2010,04,15,11,01,11.40
2010,04,15,11,02,11.40
2010,04,15,11,03,11.40
2010,04,15,11,04,11.40
2010,04,15,11,05,11.40
2010,04,15,11,06,11.40
2010,04,15,11,07,11.40
2010,04,15,11,08,11.50
2010,04,15,11,09,11.50
2010,04,15,11,10,11.60
2010,04,15,11,11,11.60
2010,04,15,11,12,11.70
2010,04,15,11,13,11.80
2010,04,15,11,14,11.90
2010,04,15,11,15,11.90
2010,04,15,11,16,12.00
2010,04,15,11,17,12.00
2010,04,15,11,18,12.10
2010,04,15,11,19,12.20
2010,04,15,11,20,12.30
2010,04,15,11,21,12.30
2010,04,15,11,22,12.40
2010,04,15,11,23,12.50
2010,04,15,11,24,12.50
2010,04,15,11,25,12.40
2010,04,15,11,26,12.40
2010,04,15,11,27,12.50
2010,04,15,11,28,12.50
2010,04,15,11,29,12.40
2010,04,15,11,30,12.40
2010,04,15,11,31,12.30
2010,04,15,11,32,12.40
2010,04,15,11,33,12.40
2010,04,15,11,34,12.40
2010,04,15,11,35,12.50
2010,04,15,11,36,12.50
2010,04,15,11,37,12.60
2010,04,15,11,38,12.60
2010,04,15,11,39,12.60
2010,04,15,11,40,12.60
2010,04,15,11,41,12.60
2010,04,15,11,42,12.50
2010,04,15,11,43,12.50
2010,04,15,11,44,12.50
2010,04,15,11,45,12.50
2010,04,15,11,46,12.50
2010,04,15,11,47,12.50
2010,04,15,11,48,12.50
2010,04,15,11,49,12.60
2010,04,15,11,50,12.50
2010,04,15,11,51,12.40
2010,04,15,11,52,12.40
2010,04,15,11,53,12.30
2010,04,15,11,54,12.30
2010,04,15,11,55,12.20
2010,04,15,11,56,12.10
2010,04,15,11,57,12.00
2010,04,15,11,58,11.90
2010,04,15,11,59,11.90
2010,04,15,12,00,12.00
2010,04,15,12,01,11.90
2010,04,15,12,02,11.80
2010,04,15,12,03,11.80
2010,04,15,12,04,11.80
2010,04,15,12,05,11.80
2010,04,15,12,06,11.70
2010,04,15,12,07,11.70
2010,04,15,12,08,11.70
2010,04,15,12,09,11.60
2010,04,15,12,10,11.60
2010,04,15,12,11,11.50
2010,04,15,12,12,11.40
2010,04,15,12,13,11.40
2010,04,15,12,14,11.30
2010,04,15,12,15,11.20
2010,04,15,12,16,11.20
2010,04,15,12,17,11.20
2010,04,15,12,18,11.10
2010,04,15,12,19,11.20
2010,04,15,12,20,11.10
2010,04,15,12,21,11.10
2010,04,15,12,22,11.10
2010,04,15,12,23,11.10
2010,04,15,12,24,11.10
2010,04,15,12,25,11.10
2010,04,15,12,26,11.10
2010,04,15,12,27,11.10
2010,04,15,12,28,11.10
2010,04,15,12,29,11.10
2010,04,15,12,30,11.10
2010,04,15,12,31,11.10
2010,04,15,12,32,11.10
2010,04,15,12,33,11.20
2010,04,15,12,34,11.20
2010,04,15,12,35,11.20
2010,04,15,12,36,11.20
2010,04,15,12,37,11.20
2010,04,15,12,38,11.10
2010,04,15,12,39,11.20
2010,04,15,12,40,11.20
2010,04,15,12,41,11.10
2010,04,15,12,42,11.10
2010,04,15,12,43,11.00
2010,04,15,12,44,11.00
2010,04,15,12,45,10.90
2010,04,15,12,46,10.80
2010,04,15,12,47,10.80
2010,04,15,12,48,10.80
2010,04,15,12,49,10.80
2010,04,15,12,50,10.80
2010,04,15,12,51,10.80
2010,04,15,12,52,10.80
2010,04,15,12,53,10.80
2010,04,15,12,54,10.90
2010,04,15,12,55,10.90
2010,04,15,12,56,10.90
2010,04,15,12,57,10.90
2010,04,15,12,58,10.90
2010,04,15,12,59,10.90
2010,04,15,13,00,10.90
2010,04,15,13,01,10.90
2010,04,15,13,02,10.90
2010,04,15,13,03,11.10
2010,04,15,13,04,11.10
2010,04,15,13,05,11.10
2010,04,15,13,06,11.20
2010,04,15,13,07,11.20
2010,04,15,13,08,11.30
2010,04,15,13,09,11.30
2010,04,15,13,10,11.40
2010,04,15,13,11,11.40
2010,04,15,13,12,11.40
2010,04,15,13,13,11.40
2010,04,15,13,14,11.40
2010,04,15,13,15,11.40
2010,04,15,13,16,11.40
2010,04,15,13,17,11.40
2010,04,15,13,18,11.50
2010,04,15,13,19,11.50
2010,04,15,13,20,11.50
2010,04,15,13,21,11.60
2010,04,15,13,22,11.60
2010,04,15,13,23,11.60
2010,04,15,13,24,11.60
2010,04,15,13,25,11.60
2010,04,15,13,26,11.60
2010,04,15,13,27,11.60
2010,04,15,13,28,11.70
2010,04,15,13,29,11.70
2010,04,15,13,30,11.70
2010,04,15,13,31,11.70
2010,04,15,13,32,11.70
2010,04,15,13,33,11.70
2010,04,15,13,34,11.70
2010,04,15,13,35,11.60
2010,04,15,13,36,11.60
2010,04,15,13,37,11.60
2010,04,15,13,38,11.50
2010,04,15,13,39,11.40
2010,04,15,13,40,11.30
2010,04,15,13,41,11.30
2010,04,15,13,42,11.30
2010,04,15,13,43,11.20
2010,04,15,13,44,11.20
2010,04,15,13,45,11.10
2010,04,15,13,46,11.10
2010,04,15,13,47,11.10
2010,04,15,13,48,11.00
2010,04,15,13,49,10.90
2010,04,15,13,50,10.90
2010,04,15,13,51,10.80
2010,04,15,13,52,10.70
2010,04,15,13,53,10.70
2010,04,15,13,54,10.60
2010,04,15,13,55,10.50
2010,04,15,13,56,10.40
2010,04,15,13,57,10.40
2010,04,15,13,58,10.30
2010,04,15,13,59,10.30
2010,04,15,14,00,10.20
2010,04,15,14,01,10.20
2010,04,15,14,02,10.20
2010,04,15,14,03,10.20
2010,04,15,14,04,10.20
2010,04,15,14,05,10.20
2010,04,15,14,06,10.20
2010,04,15,14,07,10.10
2010,04,15,14,08,10.00
2010,04,15,14,09,10.00
2010,04,15,14,10,9.90
2010,04,15,14,11,9.90
2010,04,15,14,12,9.80
2010,04,15,14,13,9.70
2010,04,15,14,14,9.60
2010,04,15,14,15,9.60
2010,04,15,14,16,9.60
2010,04,15,14,17,9.60
2010,04,15,14,18,9.50
2010,04,15,14,19,9.50
2010,04,15,14,20,9.50
2010,04,15,14,21,9.50
2010,04,15,14,22,9.50
2010,04,15,14,23,9.50
2010,04,15,14,24,9.40
2010,04,15,14,25,9.40
2010,04,15,14,26,9.40
2010,04,15,14,27,9.40
2010,04,15,14,28,9.40
2010,04,15,14,29,9.40
2010,04,15,14,30,9.40
2010,04,15,14,31,9.30
2010,04,15,14,32,9.30
2010,04,15,14,33,9.30
2010,04,15,14,34,9.30
2010,04,15,14,35,9.30
2010,04,15,14,36,9.30
2010,04,15,14,37,9.30
2010,04,15,14,38,9.30
2010,04,15,14,39,9.30
2010,04,15,14,40,9.40
2010,04,15,14,41,9.40
2010,04,15,14,42,9.40
2010,04,15,14,43,9.40
2010,04,15,14,44,9.50
2010,04,15,14,45,9.60
2010,04,15,14,46,9.60
2010,04,15,14,47,9.70
2010,04,15,14,48,9.80
2010,04,15,14,49,9.90
2010,04,15,14,50,10.00
2010,04,15,14,51,10.10
2010,04,15,14,52,10.20
2010,04,15,14,53,10.30
2010,04,15,14,54,10.40
2010,04,15,14,55,10.50
2010,04,15,14,56,10.60
2010,04,15,14,57,10.70
2010,04,15,14,58,10.80
2010,04,15,14,59,10.90
2010,04,15,15,00,11.00
2010,04,15,15,01,11.10
2010,04,15,15,02,11.10
2010,04,15,15,03,11.20
2010,04,15,15,04,11.20
2010,04,15,15,05,11.30
2010,04,15,15,06,11.30
2010,04,15,15,07,11.40
2010,04,15,15,08,11.40
2010,04,15,15,09,11.40
2010,04,15,15,10,11.40
2010,04,15,15,11,11.40
2010,04,15,15,12,11.50
2010,04,15,15,13,11.50
2010,04,15,15,14,11.50
2010,04,15,15,15,11.50
2010,04,15,15,16,11.50
2010,04,15,15,17,11.50
2010,04,15,15,18,11.50
2010,04,15,15,19,11.50
2010,04,15,15,20,11.60
2010,04,15,15,21,11.60
2010,04,15,15,22,11.60
2010,04,15,15,23,11.60
2010,04,15,15,24,11.60
2010,04,15,15,25,11.60
2010,04,15,15,26,11.60
2010,04,15,15,27,11.60
2010,04,15,15,28,11.60
2010,04,15,15,29,11.60
2010,04,15,15,30,11.60
2010,04,15,15,31,11.60
2010,04,15,15,32,11.60
2010,04,15,15,33,11.60
2010,04,15,15,34,11.60
2010,04,15,15,35,11.70
2010,04,15,15,36,11.70
2010,04,15,15,37,11.80
2010,04,15,15,38,11.80
2010,04,15,15,39,11.90
2010,04,15,15,40,11.90
2010,04,15,15,41,12.00
2010,04,15,15,42,12.00
2010,04,15,15,43,12.10
2010,04,15,15,44,12.10
2010,04,15,15,45,12.20
2010,04,15,15,46,12.20
2010,04,15,15,47,12.20
2010,04,15,15,48,12.30
2010,04,15,15,49,12.30
2010,04,15,15,50,12.40
2010,04,15,15,51,12.40
2010,04,15,15,52,12.40
2010,04,15,15,53,12.50
2010,04,15,15,54,12.40
2010,04,15,15,55,12.40
2010,04,15,15,56,12.40
2010,04,15,15,57,12.40
2010,04,15,15,58,12.40
2010,04,15,15,59,12.40
2010,04,15,16,00,12.40
2010,04,15,16,01,12.30
2010,04,15,16,02,12.30
2010,04,15,16,03,12.30
2010,04,15,16,04,12.40
2010,04,15,16,05,12.40
2010,04,15,16,06,12.40
2010,04,15,16,07,12.40
2010,04,15,16,08,12.30
2010,04,15,16,09,12.30
2010,04,15,16,10,12.30
2010,04,15,16,11,12.30
2010,04,15,16,12,12.30
2010,04,15,16,13,12.30
2010,04,15,16,14,12.30
2010,04,15,16,15,12.40
2010,04,15,16,16,12.40
2010,04,15,16,17,12.40
2010,04,15,16,18,12.30
2010,04,15,16,19,12.30
2010,04,15,16,20,12.40
2010,04,15,16,21,12.40
2010,04,15,16,22,12.40
2010,04,15,16,23,12.40
2010,04,15,16,24,12.40
2010,04,15,16,25,12.40
2010,04,15,16,26,12.40
2010,04,15,16,27,12.40
2010,04,15,16,28,12.40
2010,04,15,16,29,12.40
2010,04,15,16,30,12.40
2010,04,15,16,31,12.40
2010,04,15,16,32,12.50
2010,04,15,16,33,12.50
2010,04,15,16,34,12.50
2010,04,15,16,35,12.50
2010,04,15,16,36,12.50
2010,04,15,16,37,12.40
2010,04,15,16,38,12.40
2010,04,15,16,39,12.30
2010,04,15,16,40,12.30
2010,04,15,16,41,12.30
2010,04,15,16,42,12.30
2010,04,15,16,43,12.30
2010,04,15,16,44,12.30
2010,04,15,16,45,12.30
2010,04,15,16,46,12.30
2010,04,15,16,47,12.30
2010,04,15,16,48,12.30
2010,04,15,16,49,12.30
2010,04,15,16,50,12.30
2010,04,15,16,51,12.20
2010,04,15,16,52,12.20
2010,04,15,16,53,12.20
2010,04,15,16,54,12.20
2010,04,15,16,55,12.10
2010,04,15,16,56,12.10
2010,04,15,16,57,12.10
2010,04,15,16,58,12.10
2010,04,15,16,59,12.10
2010,04,15,17,00,12.10
2010,04,15,17,01,12.10
2010,04,15,17,02,12.10
2010,04,15,17,03,12.10
2010,04,15,17,04,12.10
2010,04,15,17,05,12.10
2010,04,15,17,06,12.10
2010,04,15,17,07,12.10
2010,04,15,17,08,12.10
2010,04,15,17,09,12.10
2010,04,15,17,10,12.10
2010,04,15,17,11,12.10
2010,04,15,17,12,12.10
2010,04,15,17,13,12.20
2010,04,15,17,14,12.20
2010,04,15,17,15,12.20
2010,04,15,17,16,12.30
2010,04,15,17,17,12.30
2010,04,15,17,18,12.30
2010,04,15,17,19,12.30
2010,04,15,17,20,12.30
2010,04,15,17,21,12.30
2010,04,15,17,22,12.30
2010,04,15,17,23,12.30
2010,04,15,17,24,12.30
2010,04,15,17,25,12.30
2010,04,15,17,26,12.30
2010,04,15,17,27,12.30
2010,04,15,17,28,12.40
2010,04,15,17,29,12.40
2010,04,15,17,30,12.40
2010,04,15,17,31,12.40
2010,04,15,17,32,12.40
2010,04,15,17,33,12.50
2010,04,15,17,34,12.50
2010,04,15,17,35,12.60
2010,04,15,17,36,12.60
2010,04,15,17,37,12.60
2010,04,15,17,38,12.60
2010,04,15,17,39,12.60
2010,04,15,17,40,12.50
2010,04,15,17,41,12.50
2010,04,15,17,42,12.50
2010,04,15,17,43,12.60
2010,04,15,17,44,12.60